Other Public Products
Issued by NWS Grand Forks, ND

Home | Current Version | Previous Version | Text Only | Print | Product List | Glossary Off
Versions: 1 2 3 4 5 6 7 8 9 10 11 12 13 14 15 16 17 18 19 20 21 22 23 24 25 26 27 28 29 30 31 32 33 34 35 36 37 38 39 40 41 42 43 44 45 46 47 48 49 50

000
FPUS83 KFGF 112231
OPUFGF
PRAIRIE TO PINES WEATHER ROUNDUP
NATIONAL WEATHER SERVICE EASTERN NORTH DAKOTA/GRAND FORKS ND
400 PM CST THU FEB 11 2016

 **SATELLITE DATA USED TO AUGMENT SKY COVER AT AUTOMATED STATIONS**
 *****  WEATHER ACROSS EASTERN NORTH DAKOTA  *****

CITY           SKY/WX    TMP DP  RH WIND       PRES   REMARKS
GRAND FORKS    PTSUNNY   16   7  67 NW7       30.24R WCI   6
GRAND FORKS AF FLURRIES  16   7  67 NW8       30.23R WCI   5
GRAND CITY NWS NOT AVBL
BUXTON           N/A     -3   7 100 NW5         N/A  WCI -13
DEVILS LAKE    FLURRIES  11   6  81 N8        30.21R WCI  -1
FARGO          CLOUDY    15   2  56 NW5       30.22R WCI   8
WAHPETON ARPT  CLOUDY    14   9  79 CALM      30.22R
$$

 *****  WEATHER ACROSS CENTRAL AND WESTERN NORTH DAKOTA  *****

CITY           SKY/WX    TMP DP  RH WIND       PRES   REMARKS
JAMESTOWN      CLOUDY    16  11  80 N8        30.16R WCI   5
BISMARCK       CLOUDY    27  18  69 N8        30.16R WCI  19
MINOT          CLOUDY    22  12  65 NW8       30.19S WCI  12
MINOT AFB      CLOUDY    21  14  74 NW1       30.19S
GARRISON         N/A     21  15  78 N5        30.17R WCI  15
WILLISTON      CLOUDY    25  18  74 N6        30.20R WCI  18
DICKINSON      CLOUDY    23  18  81 N6        30.12R HAZE    WCI  16
HETTINGER      CLOUDY    27  23  85 NE12      30.10R WCI  17
$$

 *****  OTHER OBSERVATIONS NORTHEAST NORTH DAKOTA  *****

CITY           SKY/WX    TMP DP  RH WIND       PRES   REMARKS
WALHALLA       FAIR      10   7  85 N8        30.26R WCI  -1
LANGDON        CLOUDY    12   7  79 N9        30.19R WCI   0
CAVALIER       CLOUDY    12   5  73 N12       30.25R WCI  -2
GRAFTON        CLOUDY    14   9  79 N12       30.26S WCI   0
CANDO          CLOUDY    14   9  79 N9        30.23R WCI   2
FORT TOTTEN      N/A     13   7  76 N6        29.95S WCI   4
ROLLA          CLOUDY    10   7  85 N13       30.20R WCI  -5
RUGBY          FAIR      16   9  73 NW10      30.20S WCI   3
 ***** THE ABOVE OBSERVATIONS ARE NON NWS ARE NOT QUALITY
        CONTROLLED AND MAY MIS-REPORT RAIN FOR SNOW...
$$

 *****  OTHER OBSERVATIONS SOUTHEAST NORTH DAKOTA *****

CITY           SKY/WX    TMP DP  RH WIND       PRES   REMARKS
COOPERSTOWN    NOT AVBL
VALLEY CITY    FLURRIES  14  10  85 N6        30.20R WCI   5
OAKES          CLOUDY    18  14  86 N8        30.17R WCI   7
GWINNER        CLOUDY    18  14  86 N6        30.18S WCI   9
SHEYENNE NWR     N/A     15   8  73 NW2       29.95S
BUFFALO          N/A     11   3  68 N3          N/A
WYNDMERE         N/A     16   9  73 N3          N/A
 ***** THE ABOVE OBSERVATIONS ARE NON NWS ARE NOT QUALITY
       CONTROLLED AND MAY MIS-REPORT RAIN FOR SNOW...
$$

  *****  WEATHER ACROSS NORTHERN MINNESOTA  *****

CITY           SKY/WX    TMP DP  RH WIND       PRES   REMARKS
FLAG ISLAND    CLOUDY    10   3  72 NW9       30.14S WCI  -2
WARROAD        CLOUDY    12   3  67 SW7       30.17R WCI   2
ROSEAU         CLOUDY    12   7  79 W8        30.18S WCI   1
HALLOCK        CLOUDY    12   7  79 NW9       30.24R WCI   0
THF RVR FALLS  CLOUDY    10   3  72 W8        30.21S WCI  -1
HALSTAD          N/A     13  10  88 NW5         N/A  WCI   6
FOSSTON        CLOUDY    10   0  61 SW3       30.19S
BAUDETTE       CLOUDY    12   0  58 W8        30.13S WCI   0
WASKISH        CLOUDY    10   3  72 SW7       30.16S WCI   0
CROOKSTON      FLURRIES  12   7  79 W7        30.24R WCI   2
$$
  *****  WEATHER ACROSS CENTRAL AND WEST MINNESOTA  *****

CITY           SKY/WX    TMP DP  RH WIND       PRES   REMARKS
BEMIDJI        CLOUDY    12  -4  50 W9        30.16R WCI  -1
PARK RAPIDS    CLOUDY    14   0  53 W8        30.15S WCI   3
WADENA         FLURRIES  12   7  79 W6        30.17R WCI   3
DETROIT LAKES  FLURRIES  16   7  67 NW6       30.18S WCI   7
MOORHEAD       MIX PCPN  16   3  57 W3        30.23R
FERGUS FALLS   LGT SNOW  14   9  79 SW3       30.23S
ELBOW LAKE     LGT SNOW  13   8  81 CALM      30.19S
MORRIS MN      CLOUDY    16   7  67 S5        30.18S WCI   9
STAPLES        CLOUDY    14   3  62 W6        30.17S WCI   5
WHEATON        CLOUDY    18  12  79 S3        30.21S
$$
  *****  WEATHER ELSEWHERE ACROSS MINNESOTA  *****

CITY           SKY/WX    TMP DP  RH WIND       PRES   REMARKS
DULUTH         PTSUNNY   12  -6  44 W15       30.10F WCI  -4
INTRNTL FALLS  CLOUDY    12  -6  44 W13       30.12S WCI  -3
ELY            CLOUDY     9  -4  56 W10G16    30.08S WCI  -6
CLOQUET        CLOUDY    14  -8  37 W10       30.13S WCI   1
BRAINERD       CLOUDY    13   0  56 SW6       30.17F WCI   4
HIBBING        CLOUDY    10  -8  44 W7        30.12S WCI  -1
ALEXANDRIA     CLOUDY    13   4  67 SW7       30.17S WCI   3
SAINT CLOUD    LGT SNOW  15   6  67 SW7       30.21S WCI   5
MINNEAPOLIS    CLOUDY    16  -1  47 SW8       30.24R WCI   5
$$

  *****  WEATHER ACROSS SOUTH DAKOTA  *****

CITY           SKY/WX    TMP DP  RH WIND       PRES   REMARKS
SIOUX FALLS    LGT SNOW  18  13  80 S6        30.14S WCI  10
BROOKINGS      FLURRIES  18  12  79 S8        30.13R WCI   7
WATERTOWN      LGT SNOW  19  14  81 S6        30.11S WCI  11
HURON          LGT SNOW  23  19  85 SE3       30.15R FOG
SISSETON         N/A     16  12  84 S6        30.17R WCI   7
ABERDEEN       CLOUDY    23  18  81 NE3       30.16R
MITCHELL       CLOUDY    22  18  85 E8        30.15R WCI  12
PIERRE         CLOUDY    30  26  85 E8        30.09R WCI  22
MOBRIDGE       LGT SNOW  30  24  78 CALM      30.10R
RAPID CITY     NOT AVBL
$$

  *****  SOME WEATHER IN NEARBY STATES *****

CITY           SKY/WX    TMP DP  RH WIND       PRES   REMARKS
GLASGOW MT     PTSUNNY   32  25  75 N3        30.19R
GREAT FALLS MT PTSUNNY   56  15  20 NW5       30.18S
CHEYENNE WY    MOSUNNY   52  24  33 NW28G43   30.11S
SCOTTSBLUFF NE MOSUNNY   58  26  29 NW29G37   30.09S
OMAHA NE       CLOUDY    26  18  71 CALM      30.19S
DES MOINES IA  FLURRIES  21   1  41 SE8       30.25S WCI  11
DAVENPORT IA   FAIR      22   4  46 NW3       30.28F
CHICAGO IL     FAIR      21   1  41 NW8       30.27S WCI  11
EAU CLAIRE WI  CLOUDY    14  -3  47 SW3       30.21F
LA CROSSE WI   CLOUDY    18   0  45 S9        30.25F WCI   7
$$

  *****  SOME NATIONAL WEATHER *****

CITY           SKY/WX    TMP DP  RH WIND       PRES   REMARKS
LA GUARDIA NY  MOCLDY    25   1  35 NW22G32   29.99R WCI  10
RALEIGH NC     PTCLDY    40   9  28 NW6       30.17R
ATLANTA GA     SUNNY     55  24  30 W7        30.14R
NEW ORLEANS LA MOSUNNY   74  52  46 SW17G26   30.14R
OKLAHOMA CITY  PTSUNNY   59  31  34 N8        30.13S
ALBUQUERQUE NM MOSUNNY   65  15  14 W5        30.25F
SALT LAKE CITY PTSUNNY   33  27  78 NW7       30.43F HAZE
LOS ANGELES CA MOSUNNY   74  42  31 W10       30.06F
BOISE ID       MOSUNNY   46  33  60 CALM      30.34F
SEATTLE WA     LGT RAIN  54  46  74 CALM      30.11F
$$

*** WEATHER ACROSS MANITOBA...SASKATCHEWAN AND ONTARIO ***
                ***ONTARIO***

CITY           SKY/WX    TMP DP  RH WIND       PRES   REMARKS
GERALDTON      MOCLDY     5  -4  66 W12       29.91F WCI -11
THUNDER BAY    CLOUDY    14   3  62 W13       30.07S WCI   0
SIOUX LOOKOUT  FLURRIES   9   0  66 W10G26    30.00F WCI  -6
TORONTO        PTCLDY    12  -4  48 NW18      30.14R WCI  -5
BIG TROUT LK   CLOUDY   -17 -26  63 NW10G17   30.01R WCI -37
PICKLE LAKE    LGT SNOW   3  -6  66 W13G23    29.90S DRFTSNOWWCI -14
DRYDEN         CLOUDY     9   1  72 W14G25    30.04R WCI  -8
KENORA         PTSUNNY    9   0  66 W10G20    30.09S WCI  -6
$$
                *** MANITOBA***

CITY           SKY/WX    TMP DP  RH WIND       PRES   REMARKS
BRANDON        FLURRIES  12   7  79 W9        30.24R WCI   0
DAUPHIN        SUNNY      5   0  78 W7        30.28R WCI  -7
ISLAND LAKE    FLURRIES -11 -17  77 NW7       30.15R WCI -26
PILOT MOUND      N/A      9   3  78 N7          N/A  WCI  -3
THE PAS        MOSUNNY    3  -8  60 NW17      30.32R WCI -17
THOMPSON       PTCLDY   -13 -24  58 N16G23    30.28R WCI -37
WINNIPEG       MOSUNNY    9   1  72 NW13      30.25R WCI  -7
LYNN LAKE      FLURRIES -15 -22  70 N17       30.34R WCI -40
CHURCHILL      CRYSTALS -24 -31  69 NW22G31   30.26R VSB 5/8 WCI -54
GILLAM         MOCLDY   -17 -27  58 N21       30.22R WCI -44
$$
                ***SASKATCHEWAN***

CITY           SKY/WX    TMP DP  RH WIND       PRES   REMARKS
ESTEVAN        CLOUDY    23  14  68 N9        30.20R WCI  13
KINDERSLEY     CLOUDY    19  14  79 SE8       30.22F WCI   9
LLOYDMINSTER   LGT SNOW  14  10  85 E10       30.27R WCI   1
PRINCE ALBERT  CLOUDY    10   0  61 NW6       30.35R WCI   1
REGINA         PTSUNNY   18  10  73 N12       30.25R WCI   5
YORKTON        MOSUNNY    7   1  78 NW8       30.26S WCC1F1C2F2C3F3C4F4C5F5C6F6C7F7C8F8C9F9CaFaCbFbCcFcCdFdCe!


USA.gov is the U.S. government's official web portal to all federal, state and local government web resources and services.